Bigfork, MN

5:23 PM CST on December 07, 2016 (GMT -0600)
Bigfork Municipal

Weather History for KFOZ - October, 2013

Change the Weather History Date:

Monday, October 14, 2013

  Actual Average (KGPZ) Record (KGPZ)
Temperature  
Mean Temperature 38 °F -  
Max Temperature 48 °F 55 °F 80 °F (1934)
Min Temperature 28 °F 35 °F 14 °F (1923)
Degree Days  
Heating Degree Days 27    
Moisture  
Dew Point 37 °F    
Average Humidity 85    
Maximum Humidity 93    
Minimum Humidity 62    
Precipitation  
Precipitation 0.35 in - - ()
Sea Level Pressure  
Sea Level Pressure 30.32 in    
Wind  
Wind Speed 1 mph (East)    
Max Wind Speed 13 mph    
Max Gust Speed 17 mph    
Visibility 10 miles    
Events Rain    
Averages and records for this station are not official NWS values.
T = Trace of Precipitation, MM = Missing Value Source: NWS Daily Summary

Daily Weather History Graph

Daily Weather History Graph

Search for Another Location

Airport or City:

Trip Planner

Search our weather history database for the weather conditions in past years. The results will help you decide how hot, cold, wet, or windy it might be!

Date:

Astronomy

Oct. 14, 2013 Rise Set
Actual Time 7:32 AM CDT 6:27 PM CDT
Civil Twilight 7:01 AM CDT 6:58 PM CDT
Nautical Twilight 6:25 AM CDT 7:34 PM CDT
Astronomical Twilight 5:49 AM CDT 8:10 PM CDT
Moon 4:13 PM CDT (10/14) 2:31 AM CDT (10/14)
Length of Visible Light 11h 57m
Length of Day
10h 55m
Waxing Gibbous, 79% of the Moon is Illuminated
Oct 14
Waxing Gibbous
Oct 18
Full
Oct 26
Last Quarter
Nov 3
New
Nov 9
First Quarter

Hourly Weather History & Observations

Time (CDT) Temp. Windchill Dew Point Humidity Pressure Visibility Wind Dir Wind Speed Gust Speed Precip Events Conditions
12:13 AM 28.4 °F - 26.6 °F 93% 30.39 in 10.0 mi Calm Calm - N/A   Clear
12:33 AM 28.4 °F - 26.6 °F 93% 30.39 in 10.0 mi Calm Calm - N/A   Clear
12:53 AM 28.4 °F - 26.6 °F 93% 30.40 in 10.0 mi Calm Calm - N/A   Clear
1:13 AM 28.4 °F - 26.6 °F 93% 30.41 in 10.0 mi Calm Calm - N/A   Clear
1:33 AM 28.4 °F - 26.6 °F 93% 30.41 in 10.0 mi Calm Calm - N/A   Scattered Clouds
1:53 AM 30.2 °F - 28.4 °F 93% 30.41 in 10.0 mi Calm Calm - N/A   Mostly Cloudy
2:13 AM 32.0 °F - 28.4 °F 87% 30.41 in 10.0 mi Calm Calm - N/A   Overcast
2:33 AM 33.8 °F - 30.2 °F 87% 30.41 in 10.0 mi Calm Calm - N/A   Mostly Cloudy
2:53 AM 33.8 °F - 30.2 °F 87% 30.41 in 10.0 mi Calm Calm - N/A   Scattered Clouds
3:13 AM 33.8 °F - 30.2 °F 87% 30.40 in 10.0 mi Calm Calm - N/A   Scattered Clouds
3:33 AM 33.8 °F - 32.0 °F 93% 30.40 in 10.0 mi Calm Calm - N/A   Mostly Cloudy
3:53 AM 35.6 °F - 32.0 °F 87% 30.40 in 10.0 mi Calm Calm - N/A   Overcast
4:13 AM 35.6 °F - 33.8 °F 93% 30.39 in 10.0 mi Calm Calm - N/A   Overcast
4:33 AM 35.6 °F - 33.8 °F 93% 30.38 in 10.0 mi Calm Calm - N/A   Overcast
4:53 AM 35.6 °F - 33.8 °F 93% 30.38 in 10.0 mi Calm Calm - N/A   Overcast
5:13 AM 35.6 °F - 33.8 °F 93% 30.38 in 10.0 mi Calm Calm - N/A   Overcast
5:33 AM 35.6 °F - 33.8 °F 93% 30.37 in 10.0 mi Calm Calm - N/A   Overcast
5:53 AM 37.4 °F - 33.8 °F 87% 30.37 in 10.0 mi Calm Calm - N/A   Overcast
6:13 AM 37.4 °F - 35.6 °F 93% 30.37 in 10.0 mi Calm Calm - N/A   Overcast
6:33 AM 37.4 °F - 35.6 °F 93% 30.37 in 10.0 mi Calm Calm - N/A   Overcast
6:53 AM 37.4 °F - 35.6 °F 93% 30.37 in 10.0 mi Calm Calm - N/A   Overcast
7:13 AM 37.4 °F - 35.6 °F 93% 30.37 in 10.0 mi Calm Calm - N/A   Overcast
7:33 AM 37.4 °F - 35.6 °F 93% 30.36 in 10.0 mi Calm Calm - N/A   Overcast
7:53 AM 37.4 °F - 35.6 °F 93% 30.36 in 10.0 mi Calm Calm - N/A   Overcast
8:13 AM 39.2 °F - 35.6 °F 87% 30.37 in 10.0 mi Calm Calm - N/A   Overcast
8:33 AM 39.2 °F - 37.4 °F 93% 30.36 in 10.0 mi Calm Calm - N/A   Overcast
8:53 AM 41.0 °F - 37.4 °F 87% 30.35 in 10.0 mi Calm Calm - N/A   Scattered Clouds
9:13 AM 42.8 °F - 37.4 °F 81% 30.36 in 10.0 mi Calm Calm - N/A   Scattered Clouds
9:33 AM 44.6 °F - 37.4 °F 76% 30.37 in 10.0 mi Calm Calm - N/A   Scattered Clouds
9:53 AM 44.6 °F 43.1 °F 37.4 °F 76% 30.37 in 10.0 mi SE 3.5 mph - N/A   Mostly Cloudy
10:33 AM 46.4 °F 44.3 °F 37.4 °F 71% 30.36 in 10.0 mi ESE 4.6 mph - N/A   Scattered Clouds
10:53 AM 46.4 °F 45.2 °F 37.4 °F 71% 30.36 in 10.0 mi SE 3.5 mph - N/A   Mostly Cloudy
11:13 AM 46.4 °F 45.2 °F 35.6 °F 66% 30.36 in 10.0 mi SE 3.5 mph - N/A   Mostly Cloudy
11:33 AM 46.4 °F 45.2 °F 35.6 °F 66% 30.35 in 10.0 mi SE 3.5 mph - N/A   Scattered Clouds
11:53 AM 46.4 °F 45.2 °F 35.6 °F 66% 30.34 in 10.0 mi SE 3.5 mph - N/A   Scattered Clouds
12:13 PM 46.4 °F 45.2 °F 37.4 °F 71% 30.34 in 10.0 mi SE 3.5 mph - N/A   Mostly Cloudy
12:33 PM 46.4 °F 45.2 °F 35.6 °F 66% 30.34 in 10.0 mi SE 3.5 mph - N/A   Mostly Cloudy
12:53 PM 48.2 °F - 35.6 °F 62% 30.33 in 10.0 mi ESE 3.5 mph - N/A   Overcast
1:13 PM 48.2 °F - 37.4 °F 66% 30.32 in 10.0 mi Calm Calm - N/A   Overcast
1:33 PM 48.2 °F - 37.4 °F 66% 30.32 in 10.0 mi Calm Calm - N/A   Scattered Clouds
1:53 PM 48.2 °F - 37.4 °F 66% 30.31 in 10.0 mi Calm Calm - N/A Rain Light Rain
2:13 PM 48.2 °F - 39.2 °F 71% 30.30 in 10.0 mi Calm Calm - N/A Rain Light Rain
2:33 PM 48.2 °F - 39.2 °F 71% 30.29 in 10.0 mi ENE 3.5 mph - N/A Rain Light Rain
2:53 PM 48.2 °F - 39.2 °F 71% 30.28 in 10.0 mi ENE 5.8 mph - N/A Rain Light Rain
3:13 PM 48.2 °F - 39.2 °F 71% 30.28 in 10.0 mi ENE 3.5 mph - N/A Rain Light Rain
3:33 PM 48.2 °F - 39.2 °F 71% 30.27 in 10.0 mi ENE 5.8 mph - N/A Rain Light Rain
3:53 PM 46.4 °F 42.9 °F 41.0 °F 81% 30.26 in 10.0 mi NE 6.9 mph - N/A Rain Light Rain
4:13 PM 46.4 °F 43.5 °F 41.0 °F 81% 30.26 in 10.0 mi NE 5.8 mph - N/A Rain Light Rain
4:33 PM 46.4 °F 44.3 °F 41.0 °F 81% 30.26 in 10.0 mi ENE 4.6 mph - N/A Rain Light Rain
4:53 PM 46.4 °F 45.2 °F 42.8 °F 87% 30.26 in 10.0 mi East 3.5 mph - N/A Rain Light Rain
5:13 PM 46.4 °F 45.2 °F 42.8 °F 87% 30.26 in 10.0 mi NE 3.5 mph - 0.02 in Rain Rain
5:33 PM 44.6 °F - 42.8 °F 93% 30.25 in 10.0 mi Calm Calm - 0.05 in Rain Heavy Rain
5:53 PM 44.6 °F - 42.8 °F 93% 30.25 in 10.0 mi Calm Calm - 0.01 in Rain Rain
6:13 PM 44.6 °F - 42.8 °F 93% 30.26 in 10.0 mi Calm Calm - 0.02 in Rain Light Rain
6:33 PM 44.6 °F - 42.8 °F 93% 30.25 in 10.0 mi Calm Calm - 0.03 in Rain Light Rain
6:53 PM 44.6 °F 43.1 °F 42.8 °F 93% 30.25 in 10.0 mi ENE 3.5 mph - 0.01 in Rain Light Rain
7:13 PM 44.6 °F 43.1 °F 42.8 °F 93% 30.25 in 10.0 mi ENE 3.5 mph - 0.02 in Rain Rain
7:33 PM 44.6 °F 42.2 °F 42.8 °F 93% 30.25 in 10.0 mi East 4.6 mph - 0.04 in Rain Rain
7:53 PM 44.6 °F 43.1 °F 42.8 °F 93% 30.25 in 10.0 mi East 3.5 mph - 0.02 in Rain Rain
8:13 PM 44.6 °F 43.1 °F 42.8 °F 93% 30.25 in 10.0 mi East 3.5 mph - 0.04 in Rain Rain
8:33 PM 44.6 °F - 42.8 °F 93% 30.25 in 10.0 mi Calm Calm - 0.06 in Rain Rain
8:53 PM 44.6 °F 42.2 °F 42.8 °F 93% 30.24 in 10.0 mi NE 4.6 mph - 0.02 in Rain Rain
9:13 PM 44.6 °F 40.7 °F 42.8 °F 93% 30.22 in 10.0 mi NE 6.9 mph - 0.11 in Rain Heavy Rain
9:33 PM 42.8 °F 36.2 °F 41.0 °F 93% 30.18 in 10.0 mi NNE 12.7 mph 17.3 mph 0.14 in Rain Rain
9:53 PM 44.6 °F 38.4 °F 42.8 °F 93% 30.19 in 10.0 mi NE 12.7 mph 17.3 mph N/A Rain Light Rain
10:13 PM 44.6 °F 41.4 °F 42.8 °F 93% 30.18 in 10.0 mi NE 5.8 mph - N/A   Light Drizzle
10:33 PM 44.6 °F 40.7 °F 41.0 °F 87% 30.20 in 10.0 mi ESE 6.9 mph - N/A Rain Light Rain
10:53 PM 42.8 °F 38.6 °F 41.0 °F 93% 30.18 in 10.0 mi ENE 6.9 mph - 0.01 in Rain Light Rain
11:13 PM 42.8 °F 38.6 °F 41.0 °F 93% 30.18 in 10.0 mi ENE 6.9 mph - 0.01 in Rain Light Rain
11:33 PM 42.8 °F 40.1 °F 41.0 °F 93% 30.19 in 10.0 mi East 4.6 mph - 0.02 in Rain Light Rain
11:53 PM 42.8 °F 37.5 °F 41.0 °F 93% 30.17 in 10.0 mi NE 9.2 mph - N/A Rain Rain